Home > Weather > Pueblo > Past weeks

Flag for USA Past Weather in Pueblo, Colorado, USA — Yesterday and Last 2 Weeks

Now
61 °F

Clear.


Feels Like: 61 °F
Forecast: 57 / 89 °F
Wind: 5 mph from North

Location: Pueblo Memorial Airport

Current Time: Aug 28, 2016 at 8:08:45 AM

Latest Report: Aug 28, 2016 at 6:53 AM


Visibility: 10 mi

Pressure: 29.96 "Hg (25.31 "Hg at 1430m altitude)

Humidity: 83%

Dew Point: 56 °F

Location of PuebloLocation

Past Weather in Pueblo — Graph

°F

Pueblo Temperature Yesterday

Maximum temperature yesterday: 89 °F (at 2:53 PM)
Minimum temperature yesterday: 55 °F (at 5:53 AM)
Average temperature yesterday: 73 °F

High & Low Weather Summary for the Past Weeks

 TemperatureHumidityPressure
High97 °F (Aug 15, 3:53 PM)87% (Aug 21, 5:53 AM)30.23 "Hg (Aug 21, 5:53 AM)
Low50 °F (Aug 25, 4:53 AM)9% (Aug 15, 3:53 PM)29.65 "Hg (Aug 22, 4:53 PM)
Average72 °F49%29.93 "Hg
* Reported Aug 13 6:53 AM — Aug 28 6:53 AM, Pueblo, Weather by CustomWeather, © 2016

Note: Actual official high and low records may vary slightly from our data, if they occured in-between our weather recording intervals... More about our weather records

Advertising

Pueblo Weather History for the Previous 24 Hours

Scroll right to see more
 ConditionsComfort  
Time TempWeatherWind HumidityBarometerVisibility
6:53 AM
Sun, Aug 28
61 °FClear.5 mph83%29.96 "Hg10 mi
5:53 AM61 °FClear.5 mph83%29.94 "Hg10 mi
4:53 AM63 °FClear.5 mph73%29.93 "Hg10 mi
3:53 AM63 °FPassing clouds.No wind78%29.91 "Hg10 mi
2:53 AM63 °FClear.No wind75%29.91 "Hg10 mi
1:53 AM65 °FClear.9 mph66%29.89 "Hg10 mi
12:53 AM65 °FClear.7 mph68%29.88 "Hg10 mi
11:53 PM
Sat, Aug 27
68 °FPassing clouds.12 mph61%29.86 "Hg10 mi
10:53 PM69 °FRain. Mostly cloudy.20 mph57%29.89 "Hg6 mi
10:01 PM69 °FOvercast.8 mph59%30.12 "Hg10 mi
8:53 PM78 °FThundershowers. Passing clouds.12 mph33%29.88 "Hg10 mi
7:53 PM80 °FScattered clouds.12 mph28%29.85 "Hg10 mi
6:53 PM86 °FScattered clouds.12 mph19%29.83 "Hg10 mi
5:53 PM88 °FSunny.5 mph16%29.82 "Hg10 mi
4:53 PM89 °FSunny.6 mph15%29.81 "Hg10 mi
3:53 PM88 °FSunny.3 mph16%29.81 "Hg10 mi
2:53 PM89 °FSunny.3 mph15%29.83 "Hg10 mi
1:53 PM88 °FSunny.7 mph14%29.85 "Hg10 mi
12:53 PM87 °FSunny.N/A17%29.87 "Hg10 mi
11:53 AM85 °FSunny.7 mph18%29.88 "Hg10 mi
10:53 AM81 °FSunny.5 mph27%29.90 "Hg10 mi
9:53 AM74 °FSunny.5 mph41%29.93 "Hg10 mi
8:53 AM68 °FSunny.6 mph51%29.95 "Hg10 mi
Weather by CustomWeather, © 2016

See weather overviewHow to use our weather pages